Temperature
19 19 19 19 19 18 18 18 18 17 17 17 17 16 16 16 16 16 16 15 15 15 15 15 15 15 15 15 15 15 15 15 15 15 15 14 14 14 14 14 14 14 14
19 19 19 18 18 18 18 18 17 17 17 17 16 16 16 16 15 15 15 15 15 15 15 15 15 15 14 14 14 14 14 14 14 14 14 14 14 14 14 14 14 14 14
19 19 18 18 18 18 17 17 17 17 17 16 16 16 15 15 15 15 15 15 15 15 14 14 14 14 14 14 14 14 14 14 14 14 14 13 13 13 13 13 14 14 14
19 18 18 18 18 17 17 17 17 17 17 16 16 16 15 15 15 15 14 14 14 14 14 14 14 14 14 14 14 13 13 13 13 13 14 13 13 13 13 13 13 13 13
18 18 18 18 18 17 17 17 17 17 16 16 16 15 15 15 15 15 14 14 14 14 14 14 14 14 14 13 13 13 13 13 13 13 13 13 13 13 13 13 13 13 13
18 18 18 18 17 17 17 16 16 16 16 15 15 15 15 15 15 15 15 14 14 14 14 13 13 13 13 13 13 13 13 13 13 13 13 13 12 12 12 12 13 13 13
17 17 17 17 17 16 16 16 16 16 15 15 15 15 15 15 15 15 15 14 14 14 13 13 13 13 13 13 13 13 13 12 12 12 12 12 12 12 12 12 12 12 12
17 17 17 17 16 16 16 16 15 15 15 15 15 15 15 15 15 15 14 14 13 13 13 13 13 13 13 13 12 12 12 12 12 12 11 11 11 11 11 11 11 11 12
17 17 17 16 16 16 15 15 15 15 15 15 14 14 14 14 15 14 14 14 13 13 13 13 13 13 13 13 12 12 12 12 12 12 12 11 11 11 11 11 11 12 12
17 16 16 16 16 16 16 15 15 15 15 14 14 14 14 14 14 14 14 13 13 13 13 13 13 13 13 12 12 11 11 11 11 11 11 11 11 11 11 11 11 11 12
16 16 16 16 15 15 15 15 15 14 14 14 14 14 14 14 14 14 14 13 13 13 13 13 13 12 12 12 12 11 11 11 11 11 11 11 11 11 11 11 10 10 11
16 15 15 15 15 15 15 15 14 14 14 14 14 14 14 14 14 14 14 13 13 12 12 12 12 12 12 12 12 11 11 11 11 11 11 11 11 11 11 10 10 10 10
15 15 15 15 14 14 14 14 14 14 14 14 14 14 14 13 13 13 13 13 13 12 12 12 12 12 12 11 11 11 11 11 11 11 11 11 11 11 10 10 10 10 10
15 14 14 14 14 14 14 14 14 14 14 14 14 13 13 13 13 13 12 12 12 12 12 11 11 11 11 11 11 11 11 11 11 11 11 11 11 11 10 10 10 10 10
14 14 14 14 14 14 13 13 13 13 13 13 13 13 13 13 13 12 12 12 12 12 11 11 11 11 11 11 11 11 11 11 11 11 11 11 11 11 10 10 10 10 10
14 14 14 14 13 13 13 13 13 13 13 13 13 13 12 12 12 12 12 12 11 11 11 11 11 11 11 11 11 11 11 11 11 11 11 11 10 10 10 10 10 10 10
13 13 13 13 13 13 13 13 13 12 12 12 12 12 12 12 12 11 11 11 11 11 10 11 11 11 11 11 11 11 11 10 10 10 10 10 10 10 10 10 10 10 10
13 13 13 12 12 13 12 12 12 12 12 12 12 12 11 11 11 11 11 11 10 11 10 11 11 11 11 10 11 10 10 10 10 10 10 10 10 10 10 10 10 10 10
12 12 12 12 12 12 12 12 12 12 12 12 12 11 11 11 11 11 10 10 10 11 10 10 11 11 10 10 10 10 10 10 10 10 10 10 10 10 10 10 10 9 9
12 12 12 11 12 11 12 12 12 12 12 11 11 11 11 11 11 11 10 10 10 10 10 10 10 10 10 10 10 10 10 10 10 9 10 9 10 10 9 9 9 9 9
11 11 11 11 11 11 11 11 11 11 11 11 11 11 11 11 11 10 10 10 10 10 10 10 10 10 10 10 10 10 9 10 9 10 9 9 9 9 9 9 9 9 9
11 11 11 11 11 11 11 11 11 11 11 11 11 11 11 11 11 10 10 10 10 10 10 10 10 10 10 10 10 10 10 9 9 9 9 9 9 9 9 9 9 9 9
11 11 11 11 11 11 10 11 11 11 11 11 11 11 11 10 10 10 10 10 10 10 10 10 10 10 10 9 9 9 9 9 9 9 9 9 9 9 9 9 9 9 9
10 10 10 10 10 10 10 10 10 10 10 10 10 10 10 10 10 10 10 10 10 10 10 9 9 9 9 9 9 9 9 9 9 9 8 8 8 8 9 8 8 9 8
10 10 10 10 10 10 10 10 10 10 10 10 10 10 10 10 10 10 10 9 9 9 9 9 9 9 9 9 9 9 9 9 9 8 8 8 8 8 8 8 8 8 8
9 9 9 9 9 9 9 9 9 9 9 10 10 10 10 9 10 9 9 9 9 9 9 9 9 9 9 9 9 9 9 9 8 8 8 8 8 8 8 8 8 8 8
Wind_Speed
7 6 6 6 6 6 5 5 4 4 3 3 3 3 3 3 2 2 2 2 2 2 2 1 2 2 2 2 2 2 2 3 4 4 3 2 3 4 3 3 3 4 3
6 6 6 6 6 6 6 5 5 4 4 3 3 3 3 3 2 2 3 2 3 3 2 2 2 2 2 2 2 2 2 3 4 5 4 3 3 3 3 4 4 3 2
6 6 6 6 6 6 5 5 5 5 4 4 4 3 3 2 2 2 3 3 3 3 3 2 2 2 2 2 2 3 3 3 3 4 4 3 3 2 3 4 4 3 4
5 5 5 5 5 5 5 5 5 5 4 4 4 4 4 4 3 3 3 3 3 3 3 2 2 2 2 3 2 3 3 3 3 4 4 4 3 3 3 4 4 3 4
4 5 5 5 5 5 5 5 5 5 4 4 4 4 4 5 4 3 3 3 3 3 3 3 2 2 3 3 3 2 3 4 4 4 4 4 4 3 4 4 5 4 3
4 4 4 4 4 4 5 5 5 5 4 4 5 5 5 4 3 1 3 3 3 3 3 3 3 3 1 2 2 3 4 4 5 5 5 5 5 5 5 5 5 5 5
4 4 4 4 4 4 4 4 4 4 5 5 4 4 4 3 4 3 4 4 4 4 4 4 4 2 3 3 4 5 5 5 5 5 5 6 5 5 5 6 5 6 6
4 3 4 4 4 4 4 4 4 4 4 4 4 5 4 4 5 4 5 6 4 4 4 4 3 3 3 3 4 4 4 4 4 5 5 5 5 4 5 6 7 7 7
3 3 3 3 3 3 4 4 4 4 4 4 4 4 4 4 5 4 5 5 4 5 5 4 4 3 1 3 4 4 4 4 4 4 4 5 6 6 6 6 5 5 5
2 2 2 3 3 4 4 4 3 3 4 4 3 3 4 4 4 5 5 5 5 5 4 5 4 3 2 3 4 4 5 4 4 3 4 6 6 6 7 6 6 6 5
2 2 3 3 3 4 4 4 4 4 3 3 3 4 4 4 5 6 6 5 5 5 5 4 3 4 5 5 6 5 5 5 5 5 4 4 4 4 5 5 5 5 6
2 2 2 2 3 3 3 4 4 4 5 5 4 4 4 4 5 5 6 7 7 5 5 4 2 4 5 6 5 4 5 6 5 5 5 5 4 4 4 4 4 5 5
2 2 2 2 3 2 3 4 5 5 5 4 4 4 4 3 4 7 8 8 8 6 4 2 2 5 6 6 7 7 7 6 5 5 5 5 4 4 4 4 5 5 6
2 2 2 2 3 3 3 4 5 5 5 5 5 5 4 4 4 4 4 5 6 7 5 4 7 8 8 5 6 6 6 5 5 6 5 5 4 5 5 4 4 4 5
2 2 3 3 3 3 3 4 5 4 4 5 5 5 5 5 3 1 3 4 4 3 3 4 5 4 5 5 5 4 5 5 5 6 6 5 5 5 4 4 4 5 5
3 4 3 4 3 4 4 4 3 4 4 5 5 6 4 3 3 4 4 4 3 4 5 6 6 6 6 6 6 6 6 5 5 6 6 6 5 5 5 4 4 4 4
4 4 4 4 4 4 4 5 5 4 5 6 7 7 6 5 6 7 7 6 6 6 7 7 7 6 6 6 6 6 6 5 5 6 6 6 6 5 5 5 4 5 5
5 4 5 5 5 5 5 6 6 5 5 4 5 7 8 8 8 9 8 6 6 7 7 7 7 6 6 6 6 6 6 6 6 6 6 6 6 6 5 5 5 5 5
5 5 4 5 5 6 6 6 6 6 6 5 4 4 6 6 7 9 9 7 8 7 7 7 7 7 6 6 6 6 6 6 6 6 6 6 6 6 6 6 5 5 6
5 5 6 6 6 6 6 6 6 6 6 6 6 5 3 4 5 5 6 7 7 7 7 7 7 7 6 6 6 6 7 6 6 6 6 6 6 6 6 7 6 5 5
5 5 6 7 7 6 6 6 6 7 7 6 6 5 4 6 7 6 6 7 7 7 7 7 7 7 7 6 6 7 7 6 5 5 5 6 6 6 6 5 5 5 5
6 6 6 6 6 6 6 6 7 7 7 8 7 5 6 7 7 7 7 7 7 7 7 7 7 6 7 7 7 7 7 7 6 5 5 5 5 6 5 5 5 5 5
6 7 7 6 6 6 7 7 7 7 7 7 7 6 6 7 7 7 7 7 6 6 6 7 7 6 6 7 7 7 7 7 6 6 6 6 6 5 5 5 6 6 5
6 7 6 6 6 6 6 7 7 7 7 7 7 6 6 6 7 7 7 6 6 6 7 7 7 8 8 7 6 7 7 5 6 6 7 7 7 6 5 5 5 5 5
6 6 6 6 6 6 6 7 6 6 7 7 7 7 7 6 7 6 6 6 7 7 7 7 7 7 8 9 8 6 2 2 4 5 6 6 7 6 6 5 5 5 5
6 6 6 6 6 6 6 6 6 6 6 6 6 6 6 6 6 6 6 6 6 6 6 6 7 7 7 7 7 4 4 4 5 6 7 7 7 6 6 5 6 5 5
Wind_Direction
188 187 188 187 187 189 193 193 194 198 194 194 196 202 207 212 216 235 258 250 244 254 261 248 257 290 295 295 295 294 290 284 278 287 289 291 284 295 308 280 262 237 190
182 181 187 191 193 194 193 191 192 197 202 198 201 205 216 215 219 230 247 250 247 249 251 243 255 251 261 281 282 281 280 279 275 282 285 283 279 279 283 279 279 266 258
179 183 187 195 195 196 193 191 193 199 203 202 202 206 215 221 222 234 248 255 256 262 261 251 263 271 272 280 279 280 276 271 270 272 280 290 284 288 280 271 276 275 267
177 182 183 188 184 188 189 191 196 198 200 203 207 208 212 217 220 228 241 251 262 264 262 262 271 271 272 277 269 266 270 274 264 268 276 275 274 276 276 281 282 262 271
166 178 177 177 175 180 184 188 189 197 201 202 210 210 215 217 219 224 240 239 252 264 261 263 263 293 326 311 299 291 280 278 272 269 272 274 279 286 281 281 285 282 266
170 172 166 167 172 180 185 188 189 193 204 209 217 217 222 223 129 182 256 247 244 250 256 258 249 234 250 255 294 301 296 281 284 280 273 275 276 278 282 280 281 281 282
166 167 169 174 183 192 196 190 195 197 204 214 221 223 226 199 154 193 243 252 248 249 250 252 257 242 243 260 238 233 245 255 265 274 280 284 283 285 284 278 278 280 283
166 165 171 180 183 186 191 200 205 208 211 219 221 223 228 203 168 192 230 240 248 249 248 249 257 263 275 277 268 263 254 245 249 255 271 277 282 286 277 270 269 263 261
166 169 171 175 179 185 196 204 207 205 211 219 219 223 225 197 171 191 235 240 242 246 241 240 249 253 272 273 262 262 262 255 234 227 253 262 265 262 270 268 264 261 265
176 180 180 184 192 203 208 206 202 207 213 220 214 217 223 219 180 191 229 242 242 244 235 230 219 239 229 244 257 260 261 265 273 258 240 238 243 236 236 253 264 263 265
180 174 183 199 205 210 210 205 207 213 212 218 214 215 221 221 195 200 227 247 248 247 245 244 226 177 211 237 257 261 269 276 266 260 255 253 250 247 241 241 258 269 271
181 184 189 210 229 214 209 210 212 216 213 215 220 229 221 211 208 208 220 243 269 253 256 258 237 178 219 236 251 260 259 262 260 261 259 259 259 260 258 256 253 260 269
189 205 214 221 229 222 216 217 219 220 230 234 232 236 231 220 206 197 211 229 250 254 260 280 237 221 234 236 226 234 243 249 255 260 261 262 263 269 268 251 238 237 243
219 234 239 240 242 232 235 234 233 234 238 245 248 247 241 226 226 222 227 224 225 238 247 214 207 219 234 246 231 229 242 251 260 263 266 265 258 255 252 252 250 242 248
243 255 257 252 252 248 248 259 255 251 254 256 259 257 252 246 236 260 248 242 247 252 260 253 247 242 245 243 244 246 248 245 249 258 262 261 260 259 254 252 252 255 254
249 256 262 262 256 254 252 259 266 256 240 237 247 257 257 249 210 217 233 245 238 230 245 252 251 249 249 250 249 247 245 248 254 260 261 261 260 260 258 252 247 249 254
256 263 270 270 262 258 258 259 262 251 222 222 228 234 238 235 219 213 216 219 220 214 236 251 254 254 257 257 254 255 255 253 255 257 259 260 260 259 257 250 245 251 256
266 260 264 270 270 265 260 261 261 261 261 254 227 214 216 219 220 214 205 206 232 230 242 252 256 258 260 263 261 257 255 253 248 252 256 259 258 257 257 256 249 251 257
273 272 272 272 269 268 263 262 263 261 260 261 261 225 204 210 212 211 205 230 239 240 245 252 258 259 258 259 260 258 255 254 255 256 256 258 257 255 255 255 254 251 258
262 254 261 268 264 264 263 263 263 263 261 257 254 257 237 239 245 226 225 237 243 247 247 250 255 257 255 254 254 253 254 253 252 251 254 254 253 252 251 251 253 254 254
274 261 244 261 263 265 265 266 268 266 265 263 261 251 229 249 252 246 241 241 244 247 249 251 251 250 246 244 244 242 246 250 252 255 257 256 255 254 252 249 249 252 254
272 270 266 267 269 267 267 267 269 269 266 267 268 251 214 245 255 251 246 243 243 246 250 254 253 246 243 241 237 239 243 246 247 249 252 255 255 251 249 246 247 253 254
266 268 268 269 272 265 262 264 264 265 266 267 268 266 253 256 259 259 258 256 250 248 249 250 252 250 246 241 240 239 243 247 248 249 253 254 251 248 248 247 248 251 250
269 268 268 269 270 273 271 269 269 269 269 268 266 263 261 260 260 260 258 258 257 253 251 247 248 250 247 245 243 241 242 247 251 245 247 251 248 246 244 246 247 247 245
272 269 266 264 266 269 273 273 273 274 274 273 270 265 262 259 257 255 254 254 255 254 252 249 248 247 245 244 246 247 203 189 239 252 245 246 245 246 247 245 243 244 246
277 274 270 266 266 269 273 275 274 277 279 278 274 271 269 266 264 262 258 254 254 255 253 252 250 251 250 246 243 225 175 189 209 235 245 241 239 238 241 242 243 243 244
Height
1513 1514 1516 1517 1518 1520 1521 1522 1523 1523 1524 1524 1524 1524 1525 1525 1524 1525 1525 1525 1525 1524 1524 1524 1523 1523 1524 1524 1523 1523 1522 1523 1522 1521 1521 1520 1518 1517 1517 1516 1516 1515 1516
1511 1512 1513 1515 1516 1517 1519 1519 1520 1521 1521 1521 1522 1522 1523 1523 1523 1523 1523 1523 1523 1522 1522 1522 1522 1522 1521 1521 1521 1520 1520 1520 1520 1519 1518 1518 1516 1515 1514 1513 1513 1513 1513
1509 1510 1512 1513 1514 1515 1516 1517 1518 1518 1518 1519 1519 1520 1520 1521 1521 1521 1521 1521 1520 1520 1520 1520 1520 1520 1519 1519 1518 1518 1518 1518 1517 1517 1516 1515 1514 1513 1512 1511 1511 1510 1510
1507 1508 1509 1509 1510 1512 1513 1514 1515 1515 1516 1516 1517 1517 1518 1518 1519 1519 1519 1518 1518 1518 1518 1518 1518 1517 1517 1516 1516 1515 1515 1515 1514 1514 1513 1512 1511 1510 1510 1509 1508 1508 1507
1505 1506 1507 1507 1508 1509 1510 1511 1512 1513 1513 1514 1514 1515 1515 1516 1517 1517 1517 1517 1516 1516 1516 1515 1515 1515 1514 1514 1514 1513 1512 1512 1512 1511 1510 1510 1509 1508 1508 1507 1506 1505 1504
1502 1503 1504 1505 1506 1507 1508 1509 1509 1510 1510 1511 1511 1512 1513 1514 1514 1514 1514 1514 1514 1513 1513 1513 1513 1512 1511 1510 1510 1509 1509 1509 1508 1508 1507 1507 1506 1505 1505 1504 1503 1502 1501
1501 1501 1502 1502 1503 1504 1505 1506 1506 1507 1508 1508 1509 1509 1510 1510 1511 1511 1511 1511 1512 1511 1511 1510 1511 1510 1509 1508 1507 1506 1505 1505 1505 1504 1504 1503 1502 1502 1501 1501 1500 1499 1498
1499 1499 1500 1501 1501 1502 1503 1503 1504 1505 1505 1505 1506 1506 1506 1507 1508 1508 1508 1508 1509 1509 1508 1508 1507 1506 1506 1505 1505 1504 1503 1502 1501 1501 1500 1499 1499 1498 1497 1497 1496 1495 1494
1497 1497 1498 1498 1499 1500 1500 1501 1502 1502 1502 1503 1503 1503 1503 1504 1504 1505 1505 1506 1506 1505 1505 1505 1504 1503 1502 1502 1501 1500 1499 1499 1498 1497 1496 1495 1494 1494 1494 1494 1493 1493 1492
1495 1495 1496 1496 1497 1498 1498 1499 1499 1499 1499 1500 1500 1500 1500 1500 1501 1501 1501 1502 1502 1502 1501 1501 1500 1500 1499 1499 1498 1497 1496 1496 1495 1494 1493 1492 1491 1490 1490 1490 1490 1489 1488
1493 1493 1494 1494 1495 1495 1496 1496 1496 1496 1497 1497 1497 1497 1497 1497 1497 1497 1497 1497 1497 1498 1498 1498 1497 1496 1496 1495 1495 1494 1493 1492 1492 1491 1490 1489 1488 1487 1487 1486 1486 1486 1485
1491 1491 1491 1492 1493 1493 1493 1493 1493 1494 1494 1493 1494 1493 1493 1493 1493 1493 1493 1493 1493 1494 1494 1494 1494 1493 1492 1492 1491 1490 1490 1489 1489 1488 1487 1486 1485 1485 1484 1483 1482 1482 1481
1489 1489 1489 1489 1490 1490 1490 1490 1490 1490 1491 1490 1490 1490 1489 1489 1489 1488 1489 1489 1489 1490 1490 1489 1489 1489 1488 1488 1487 1487 1486 1486 1486 1485 1484 1483 1482 1481 1480 1479 1479 1478 1477
1486 1487 1486 1487 1487 1487 1487 1487 1488 1488 1487 1487 1487 1486 1486 1485 1485 1485 1485 1485 1485 1486 1486 1485 1485 1485 1484 1484 1484 1483 1483 1483 1482 1481 1480 1479 1478 1477 1476 1476 1476 1475 1475
1484 1484 1485 1485 1484 1484 1483 1483 1484 1483 1483 1483 1483 1482 1482 1481 1481 1481 1481 1481 1482 1482 1481 1481 1481 1481 1481 1481 1481 1481 1480 1479 1479 1478 1477 1475 1474 1474 1473 1473 1472 1472 1472
1482 1482 1482 1482 1481 1481 1480 1480 1479 1479 1479 1478 1478 1478 1477 1477 1476 1476 1476 1477 1477 1478 1478 1478 1478 1478 1478 1477 1477 1476 1476 1476 1475 1474 1473 1472 1471 1470 1470 1469 1469 1468 1468
1479 1479 1479 1479 1478 1477 1477 1476 1475 1475 1474 1474 1473 1473 1473 1472 1472 1472 1472 1472 1473 1474 1474 1474 1474 1474 1473 1473 1473 1472 1472 1471 1471 1470 1470 1469 1468 1467 1466 1466 1465 1465 1465
1476 1475 1475 1475 1474 1474 1473 1473 1472 1471 1470 1469 1469 1469 1468 1468 1468 1468 1468 1468 1468 1469 1469 1470 1470 1469 1469 1469 1468 1468 1467 1467 1466 1466 1465 1465 1464 1463 1463 1462 1462 1461 1461
1472 1472 1471 1471 1471 1470 1470 1469 1468 1468 1467 1466 1465 1465 1464 1464 1463 1463 1463 1464 1464 1464 1464 1465 1465 1465 1464 1464 1464 1463 1463 1462 1462 1461 1461 1460 1459 1459 1459 1458 1458 1457 1457
1468 1467 1467 1467 1466 1466 1465 1465 1464 1464 1463 1462 1461 1461 1460 1460 1459 1459 1459 1459 1459 1459 1459 1459 1459 1459 1459 1459 1458 1458 1458 1457 1457 1456 1456 1456 1455 1455 1454 1454 1454 1454 1454
1465 1464 1463 1463 1462 1462 1461 1461 1460 1460 1459 1458 1458 1457 1456 1456 1455 1455 1454 1454 1454 1455 1454 1454 1454 1454 1454 1453 1453 1453 1453 1453 1452 1452 1452 1451 1451 1451 1450 1450 1450 1450 1450
1461 1460 1460 1459 1458 1458 1457 1456 1456 1455 1454 1454 1453 1452 1451 1451 1451 1450 1450 1449 1449 1449 1449 1449 1449 1449 1448 1448 1448 1448 1448 1448 1448 1447 1447 1447 1447 1447 1447 1447 1447 1446 1446
1457 1456 1455 1455 1454 1453 1453 1452 1451 1451 1450 1449 1448 1448 1447 1447 1446 1445 1445 1445 1444 1444 1444 1444 1444 1444 1443 1443 1443 1443 1443 1443 1443 1443 1443 1443 1443 1443 1443 1443 1443 1443 1443
1452 1452 1451 1450 1449 1449 1448 1448 1447 1446 1445 1445 1444 1443 1442 1442 1441 1440 1440 1440 1439 1439 1438 1438 1438 1438 1438 1438 1438 1438 1438 1438 1438 1438 1438 1438 1439 1439 1439 1439 1439 1439 1439
1448 1447 1446 1445 1445 1444 1444 1443 1443 1442 1441 1440 1439 1438 1438 1437 1436 1435 1435 1434 1434 1433 1433 1433 1433 1433 1433 1433 1433 1433 1433 1433 1433 1433 1434 1434 1435 1435 1435 1435 1436 1436 1436
1443 1442 1441 1441 1440 1440 1439 1438 1438 1437 1436 1435 1434 1433 1432 1431 1431 1430 1429 1429 1428 1427 1427 1427 1427 1427 1428 1428 1428 1428 1428 1428 1428 1429 1430 1430 1431 1431 1431 1432 1432 1433 1433